When you browse on this site, cookies collect data to enhance your experience and personalize the content and advertising you see.
Visit our Privacy Policy to learn more. By continuing to use the site, you agree to this use of cookies and data.
  • en France
  • Liste des pays
  • À 7 jours
  • Température de l'eau
  • Carte satellitaire
  • Carte météo
  • Widgets météo
  • user-avatar
    Se connecter

    Météo par heure à Grand Bassam

    Ce jour, 24 Mai, Vendredi

    Heure Température Précipitation Vent Pression Humidité
    00:00 +28°C° 0 mm 2 m/s 758 mmHg 86%
    01:00 +28°C° 0 mm 2 m/s 757 mmHg 86%
    02:00 +28°C° 0 mm 2 m/s 757 mmHg 87%
    03:00 +28°C° 0 mm 2 m/s 757 mmHg 87%
    04:00 +28°C° 0 mm 2 m/s 757 mmHg 87%
    05:00 +28°C° 0 mm 2 m/s 757 mmHg 87%
    06:00 +28°C° 0 mm 2 m/s 757 mmHg 87%
    07:00 +29°C° 0 mm 2 m/s 757 mmHg 81%
    08:00 +31°C° 0 mm 2 m/s 757 mmHg 75%
    09:00 +32°C° 0 mm 2 m/s 758 mmHg 69%
    10:00 +34°C° 0 mm 2 m/s 758 mmHg 66%
    11:00 +35°C° 0 mm 2 m/s 758 mmHg 63%
    12:00 +35°C° 0 mm 3 m/s 758 mmHg 60%
    13:00 +35°C° 0 mm 3 m/s 757 mmHg 61%
    14:00 +35°C° 0 mm 3 m/s 756 mmHg 61%
    15:00 +35°C° 0 mm 3 m/s 756 mmHg 62%
    16:00 +34°C° 0 mm 3 m/s 756 mmHg 67%
    17:00 +33°C° 0 mm 3 m/s 756 mmHg 73%
    18:00 +30°C° 0 mm 3 m/s 756 mmHg 78%
    19:00 +30°C° 0 mm 3 m/s 757 mmHg 80%
    20:00 +30°C° 0 mm 2 m/s 757 mmHg 83%
    21:00 +29°C° 0 mm 2 m/s 758 mmHg 85%
    22:00 +29°C° 0 mm 2 m/s 758 mmHg 86%
    23:00 +29°C° 0 mm 3 m/s 758 mmHg 86%

    Demain, 25 Mai, Samedi

    Heure Température Précipitation Vent Pression Humidité
    00:00 +29°C° 0 mm 3 m/s 758 mmHg 87%
    01:00 +29°C° 0.1 mm 3 m/s 757 mmHg 88%
    02:00 +29°C° 0.1 mm 3 m/s 757 mmHg 88%
    03:00 +28°C° 0.1 mm 4 m/s 757 mmHg 89%
    04:00 +28°C° 0.8 mm 3 m/s 757 mmHg 90%
    05:00 +28°C° 0.8 mm 3 m/s 757 mmHg 91%
    06:00 +27°C° 0.8 mm 3 m/s 757 mmHg 92%
    07:00 +28°C° 1 mm 2 m/s 758 mmHg 88%
    08:00 +29°C° 1 mm 2 m/s 758 mmHg 84%
    09:00 +30°C° 1 mm 2 m/s 759 mmHg 80%
    10:00 +31°C° 3.1 mm 2 m/s 759 mmHg 78%
    11:00 +31°C° 3.1 mm 3 m/s 758 mmHg 77%
    12:00 +31°C° 3.1 mm 3 m/s 758 mmHg 75%
    13:00 +32°C° 0.1 mm 4 m/s 758 mmHg 74%
    14:00 +32°C° 0.1 mm 4 m/s 757 mmHg 72%
    15:00 +32°C° 0.1 mm 4 m/s 757 mmHg 71%
    16:00 +30°C° 1.6 mm 4 m/s 757 mmHg 77%
    17:00 +29°C° 1.6 mm 3 m/s 757 mmHg 83%
    18:00 +28°C° 1.6 mm 3 m/s 757 mmHg 89%
    19:00 +28°C° 0.5 mm 3 m/s 758 mmHg 89%
    20:00 +28°C° 0.5 mm 3 m/s 758 mmHg 89%
    21:00 +27°C° 0.5 mm 2 m/s 758 mmHg 88%
    22:00 +28°C° 0 mm 2 m/s 759 mmHg 88%
    23:00 +28°C° 0 mm 3 m/s 759 mmHg 88%

    Après-demain, 26 Mai, Dimanche

    Heure Température Précipitation Vent Pression Humidité
    00:00 +28°C° 0 mm 3 m/s 759 mmHg 88%
    01:00 +27°C° 0.3 mm 3 m/s 758 mmHg 89%
    02:00 +27°C° 0.3 mm 3 m/s 758 mmHg 90%
    03:00 +27°C° 0.3 mm 3 m/s 758 mmHg 91%
    04:00 +27°C° 0.8 mm 3 m/s 758 mmHg 91%
    05:00 +27°C° 0.8 mm 3 m/s 758 mmHg 92%
    06:00 +27°C° 0.8 mm 3 m/s 758 mmHg 92%
    07:00 +28°C° 2.1 mm 3 m/s 758 mmHg 89%
    08:00 +29°C° 2.1 mm 3 m/s 759 mmHg 86%
    09:00 +29°C° 2.1 mm 3 m/s 759 mmHg 83%
    10:00 +30°C° 1.9 mm 3 m/s 759 mmHg 83%
    11:00 +30°C° 1.9 mm 3 m/s 759 mmHg 82%
    12:00 +30°C° 1.9 mm 3 m/s 759 mmHg 81%
    13:00 +30°C° 0.6 mm 3 m/s 758 mmHg 81%
    14:00 +30°C° 0.6 mm 3 m/s 758 mmHg 81%
    15:00 +30°C° 0.6 mm 3 m/s 757 mmHg 81%
    16:00 +29°C° 0.1 mm 3 m/s 757 mmHg 82%
    17:00 +29°C° 0.1 mm 3 m/s 757 mmHg 84%
    18:00 +28°C° 0.1 mm 3 m/s 757 mmHg 85%
    19:00 +28°C° 0 mm 3 m/s 758 mmHg 85%
    20:00 +28°C° 0 mm 3 m/s 758 mmHg 86%
    21:00 +28°C° 0 mm 3 m/s 759 mmHg 86%
    22:00 +28°C° 0 mm 3 m/s 759 mmHg 86%
    23:00 +28°C° 0 mm 3 m/s 759 mmHg 86%

    27 Mai, Lundi

    Heure Température Précipitation Vent Pression Humidité
    00:00 +28°C° 0 mm 3 m/s 759 mmHg 86%
    01:00 +28°C° 0.1 mm 3 m/s 758 mmHg 87%
    02:00 +28°C° 0.1 mm 3 m/s 758 mmHg 87%
    03:00 +28°C° 0.1 mm 3 m/s 757 mmHg 88%
    04:00 +27°C° 0.1 mm 3 m/s 758 mmHg 88%
    05:00 +27°C° 0.1 mm 3 m/s 758 mmHg 88%
    06:00 +27°C° 0.1 mm 2 m/s 758 mmHg 89%
    07:00 +28°C° 0 mm 2 m/s 758 mmHg 86%
    08:00 +29°C° 0 mm 2 m/s 759 mmHg 84%
    09:00 +29°C° 0 mm 2 m/s 759 mmHg 82%
    10:00 +30°C° 0.2 mm 2 m/s 759 mmHg 79%
    11:00 +31°C° 0.2 mm 2 m/s 759 mmHg 75%
    12:00 +31°C° 0.2 mm 2 m/s 759 mmHg 72%
    13:00 +31°C° 0.1 mm 3 m/s 758 mmHg 72%
    14:00 +31°C° 0.1 mm 3 m/s 757 mmHg 72%
    15:00 +32°C° 0.1 mm 4 m/s 756 mmHg 72%
    16:00 +30°C° 0.2 mm 4 m/s 756 mmHg 78%
    17:00 +29°C° 0.2 mm 4 m/s 757 mmHg 83%
    18:00 +28°C° 0.2 mm 4 m/s 757 mmHg 88%
    19:00 +28°C° 0.1 mm 4 m/s 757 mmHg 89%
    20:00 +28°C° 0.1 mm 3 m/s 758 mmHg 90%
    21:00 +28°C° 0.1 mm 3 m/s 759 mmHg 91%
    22:00 +27°C° 0.1 mm 3 m/s 759 mmHg 91%
    23:00 +27°C° 0.1 mm 3 m/s 759 mmHg 92%

    28 Mai, Mardi

    Heure Température Précipitation Vent Pression Humidité
    00:00 +27°C° 0.1 mm 3 m/s 758 mmHg 92%
    01:00 +27°C° 0.1 mm 3 m/s 758 mmHg 92%
    02:00 +27°C° 0.1 mm 3 m/s 757 mmHg 92%
    03:00 +27°C° 0.1 mm 3 m/s 757 mmHg 93%
    04:00 +27°C° 0 mm 3 m/s 757 mmHg 92%
    05:00 +27°C° 0 mm 3 m/s 758 mmHg 92%
    06:00 +27°C° 0 mm 2 m/s 758 mmHg 92%
    07:00 +28°C° 0 mm 3 m/s 758 mmHg 86%
    08:00 +30°C° 0 mm 3 m/s 759 mmHg 80%
    09:00 +31°C° 0 mm 3 m/s 759 mmHg 74%
    10:00 +33°C° 0 mm 3 m/s 758 mmHg 71%
    11:00 +33°C° 0 mm 4 m/s 758 mmHg 67%
    12:00 +34°C° 0 mm 4 m/s 758 mmHg 64%
    13:00 +34°C° 0 mm 4 m/s 757 mmHg 65%
    14:00 +34°C° 0 mm 4 m/s 756 mmHg 65%
    15:00 +34°C° 0 mm 4 m/s 756 mmHg 66%
    16:00 +33°C° 0 mm 4 m/s 756 mmHg 70%
    17:00 +32°C° 0 mm 4 m/s 756 mmHg 75%
    18:00 +30°C° 0 mm 4 m/s 756 mmHg 79%
    19:00 +29°C° 0 mm 3 m/s 757 mmHg 81%
    20:00 +29°C° 0 mm 3 m/s 758 mmHg 84%
    21:00 +28°C° 0 mm 3 m/s 758 mmHg 86%
    22:00 +28°C° 0 mm 3 m/s 758 mmHg 86%
    23:00 +28°C° 0 mm 3 m/s 758 mmHg 86%

    29 Mai, Mercredi

    Heure Température Précipitation Vent Pression Humidité
    00:00 +28°C° 0 mm 3 m/s 758 mmHg 87%
    01:00 +28°C° 0 mm 3 m/s 757 mmHg 87%
    02:00 +28°C° 0 mm 3 m/s 757 mmHg 88%
    03:00 +28°C° 0 mm 3 m/s 756 mmHg 88%
    04:00 +28°C° 0 mm 3 m/s 757 mmHg 88%
    05:00 +28°C° 0 mm 3 m/s 757 mmHg 89%
    06:00 +28°C° 0 mm 3 m/s 757 mmHg 89%
    07:00 +29°C° 0 mm 3 m/s 758 mmHg 85%
    08:00 +30°C° 0 mm 3 m/s 758 mmHg 80%
    09:00 +31°C° 0 mm 3 m/s 758 mmHg 76%
    10:00 +33°C° 0.1 mm 4 m/s 758 mmHg 72%
    11:00 +34°C° 0.1 mm 4 m/s 757 mmHg 69%
    12:00 +34°C° 0.1 mm 4 m/s 757 mmHg 65%
    13:00 +34°C° 0 mm 5 m/s 756 mmHg 66%
    14:00 +34°C° 0 mm 5 m/s 756 mmHg 67%
    15:00 +34°C° 0 mm 5 m/s 755 mmHg 67%
    16:00 +33°C° 0.1 mm 5 m/s 756 mmHg 72%
    17:00 +32°C° 0.1 mm 4 m/s 756 mmHg 77%
    18:00 +30°C° 0.1 mm 4 m/s 756 mmHg 82%
    19:00 +29°C° 0.1 mm 4 m/s 757 mmHg 83%
    20:00 +29°C° 0.1 mm 4 m/s 757 mmHg 85%
    21:00 +29°C° 0.1 mm 4 m/s 758 mmHg 87%
    22:00 +29°C° 0.1 mm 4 m/s 758 mmHg 87%
    23:00 +29°C° 0.1 mm 4 m/s 758 mmHg 87%
    Voir plus